Flag for Israel Weather past 2 weeks in Bnei Brak, Israel

Now
86 °F

Clear.


Feels Like: 85 °F
Forecast: 69 / 83 °F
Wind: 3 mph from North

Location: Dov Airport

Current Time: May 28, 2015 at 2:18:26 AM

Latest Report: May 27, 2015 at 10:50 PM


Visibility: 10 mi

Pressure: 29.71 "Hg

Humidity: 38%

Dew point: 57 °F

Location of Bnei BrakLocation

Historic Weather in Bnei Brak — Graph

°F

Bnei Brak temperature yesterday

Maximum temperature yesterday: 102 °F (at 3:50 PM)
Minimum temperature yesterday: 70 °F (at 5:00 AM)
Average temperature yesterday: 87 °F

Past Weeks' High & Low Weather Summary

 TemperatureHumidityPressure
High104 °F (May 18, 12:50 PM)88% (May 13, 4:55 AM)30.15 "Hg (May 13, 4:55 AM)
Low63 °F (May 16, 5:50 AM)6% (May 18, 12:50 PM)29.62 "Hg (May 27, 5:50 PM)
Average76 °F63%29.89 "Hg
* Reported May 12 10:50 PM — May 27 10:50 PM, Bnei Brak, Weather by CustomWeather, © 2015

Note: Actual official high and low records may vary slightly from our data, if they occured in-between our weather recording intervals... More about our weather records

Advertising

Bnei Brak weather history for previous 24 hours

 ConditionsComfort  
Time TempWeatherWind HumidityBarometerVisibility
10:50 PM
Wed, May 27
86 °FClear.3 mph38%29.71 "Hg10 mi
9:50 PM86 °FClear.8 mph46%29.71 "Hg10 mi
8:50 PM86 °FClear.7 mph52%29.68 "Hg10 mi
7:50 PM97 °FSunny.1 mph19%29.62 "Hg10 mi
6:50 PM102 °FSunny.1 mph14%29.62 "Hg10 mi
5:50 PM102 °FSunny.1 mph15%29.62 "Hg10 mi
4:50 PM102 °FSunny.1 mph15%29.65 "Hg10 mi
3:50 PM102 °FSunny.2 mph15%29.68 "Hg10 mi
2:50 PM97 °FSunny.6 mph22%29.68 "Hg10 mi
1:50 PM93 °FSunny.8 mph28%29.71 "Hg10 mi
12:50 PM88 °FSunny.8 mph52%29.71 "Hg10 mi
11:50 AM82 °FPassing clouds.8 mph70%29.74 "HgN/A
10:50 AM90 °FSunny.3 mph49%29.74 "Hg10 mi
9:50 AM79 °FSunny.3 mph61%29.77 "Hg10 mi
8:50 AM79 °FSunny.2 mph58%29.80 "Hg10 mi
7:50 AM77 °FSunny.1 mph57%29.80 "Hg10 mi
6:50 AM72 °FSunny.3 mph65%29.77 "Hg10 mi
5:50 AM70 °FClear.1 mph69%29.77 "Hg10 mi
5:00 AM70 °FClear.2 mph73%29.80 "Hg10 mi
Weather by CustomWeather, © 2015

See weather overviewHow to use our weather pages